Location: Newark
(51.7378°N, 19.8125°E)
Time: 01:31:19
(UTC+00:00)

Envisat - Pass Details

Date: 15 December 2019
Orbit: 764 x 766 km, 98.1° (Epoch: 23 January)

Event Time Altitude Azimuth Distance (km) Brightness Sun altitude
Rises 16:11:39 0° 158° (SSE) 3,223 6.2 -14.5°
Reaches altitude 10° 16:13:56 10° 157° (SSE) 2,301 5.4 -14.8°
Maximum altitude 16:19:00 77° 73° (ENE) 793 2.9 -15.6°
Drops below altitude 10° 16:24:07 10° 348° (NNW) 2,317 5.4 -16.3°
Sets 16:26:26 0° 347° (NNW) 3,248 6.2 -16.7°
